This demonstration page uses our WeatherBlox Daily Observations layout. Learn more.

41.55636, -103.73856

Hourly Observations for March 2, 2019

Temp ( °F °C ) Dew Point ( °F °C ) Humidity (%) Winds ( mph kmh ) Pressure ( in mb ) Visibility ( mi km ) Precip ( " mm )
12:08 am 00:08 Windy with Snow Likely 22 -5.6 19 -7.2 89 89 ESE 20 31 30.3 1026 4 6.437376 0.001 0.001
12:53 am 00:53 Windy with Snow Likely 21 -6.1 20 -6.7 96 96 ESE 20 31 30.12 1020 5 8.04672 0.01 0.254
1:21 am 01:21 Windy with Snow Likely 22 -5.6 20 -6.7 92 92 ESE 20 31 30.27 1025 2.5 4.02336 0.001 0.001
1:53 am 01:53 Cloudy with Light Snow 21 -6.1 20 -6.7 96 96 ESE 15 24 30.12 1020 2 3.218688 0.001 0.001
1:59 am 01:59 Cloudy with Light Snow 21 -6.1 20 -6.7 96 96 ESE 16 26 30.27 1025 1.75 2.816352 0.001 0.001
2:43 am 02:43 Mostly Cloudy with Scattered Snow Showers 21 -6.1 20 -6.7 96 96 ESE 17 28 30.27 1025 0.75 1.207008 0.02 0.508
2:53 am 02:53 Mostly Cloudy with Scattered Snow Showers 21 -6.1 20 -6.7 96 96 ESE 16 26 30.12 1020 0.75 1.207008 0.02 0.508
3:04 am 03:04 Mostly Cloudy with Scattered Snow Showers 21 -6 19 -7 93 93 ESE 16 26 30.27 1025 1 1.609344 0 0
3:20 am 03:20 Cloudy with Light Snow 19 -7 19 -7 100 100 ESE 16 26 30.3 1026 1.25 2.01168 0 0
3:53 am 03:53 Cloudy with Light Snow 20 -6.7 19 -7.2 96 96 ESE 15 24 30.09 1019 1.25 2.01168 0.02 0.508
4:32 am 04:32 Cloudy with Light Snow 19 -7 19 -7 100 100 E 15 24 30.3 1026 2 3.218688 0 0
4:39 am 04:39 Cloudy with Light Snow 20 -6.7 19 -7.2 96 96 E 16 26 30.3 1026 3 4.828032 0.01 0.254
4:53 am 04:53 Cloudy with Light Snow 20 -6.7 19 -7.2 96 96 E 17 28 30.12 1020 3 4.828032 0.01 0.254
5:04 am 05:04 Cloudy with Light Snow 19 -7 19 -7 100 100 E 14 22 30.3 1026 2.5 4.02336 0 0
5:41 am 05:41 Cloudy with Light Snow 20 -6.7 19 -7.2 96 96 E 13 20 30.33 1027 2 3.218688 0.001 0.001
5:50 am 05:50 Cloudy with Light Snow 19 -7 19 -7 100 100 E 14 22 30.33 1027 1.5 2.414016 0 0
5:53 am 05:53 Cloudy with Light Snow 20 -6.7 19 -7.2 96 96 E 14 22 30.18 1022 1.5 2.414016 0.01 0.254
6:53 am 06:53 Cloudy with Light Snow 20 -6.7 19 -7.2 96 96 ESE 13 20 30.24 1024 1.5 2.414016 0.02 0.508
7:42 am 07:42 Cloudy with Light Snow 21 -6 19 -7 93 93 ESE 8 13 30.36 1028 0.75 1.207008 0 0
7:53 am 07:53 Cloudy with Light Snow 21 -6.1 20 -6.7 96 96 ESE 9 15 30.27 1025 0.75 1.207008 0.01 0.254
8:07 am 08:07 Cloudy with Snow 21 -6.1 20 -6.7 96 96 ESE 8 13 30.39 1029 0.5 0.804672 0.01 0.254
8:30 am 08:30 Cloudy with Light Snow 22 -5.6 19 -7.2 89 89 E 12 19 30.39 1029 1 1.609344 0.02 0.508
8:46 am 08:46 Cloudy with Light Snow 21 -6 19 -7 93 93 E 12 19 30.39 1029 0.75 1.207008 0 0
8:53 am 08:53 Cloudy with Snow 21 -6.1 19 -7.2 92 92 E 13 20 30.3 1026 0.5 0.804672 0.03 0.762
9:01 am 09:01 Cloudy with Snow 21 -6.1 19 -7.2 92 92 ENE 12 19 30.39 1029 0.5 0.804672 0.001 0.001
9:20 am 09:20 Cloudy with Light Snow 19 -7 18 -8 93 93 ENE 13 20 30.45 1031 0.75 1.207008 0 0
9:53 am 09:53 Windy with Snow Likely 17 -8.3 13 -10.6 84 84 NE 21 33 30.33 1027 0.75 1.207008 0.01 0.254
10:09 am 10:09 Mostly Cloudy with Snow 15 -9.4 12 -11.1 88 88 NNE 20 31 30.48 1032 0.5 0.804672 0.001 0.001
10:35 am 10:35 Mostly Cloudy with Scattered Snow Showers 13 -10.6 9 -12.8 84 84 NNE 22 35 30.5 1033 1 1.609344 0.001 0.001
10:53 am 10:53 Windy with Snow Likely 10 -12.2 5 -15 80 80 NNE 28 44 30.39 1029 1.25 2.01168 0.001 0.001
11:12 am 11:12 Windy with Snow Likely 9 -13 3 -16 78 78 NNE 30 48 30.56 1035 1.25 2.01168 0 0
11:49 am 11:49 Windy with Snow Likely 7 -14 1 -17 78 78 NNE 29 46 30.59 1036 2 3.218688 0 0
11:53 am 11:53 Windy with Snow Likely 8 -13.3 2 -16.7 76 76 NNE 24 39 30.39 1029 1.75 2.816352 0.001 0.001
12:05 pm 12:05 Windy with Snow Likely 8 -13.3 2 -16.7 76 76 NNE 26 43 30.56 1035 2 3.218688 0.001 0.001
12:16 pm 12:16 Windy with Snow Likely 7 -14 1 -17 78 78 NNE 26 43 30.59 1036 4 6.437376 0 0
12:53 pm 12:53 Windy with Snow Likely 7 -13.9 1 -17.2 76 76 NE 23 37 30.42 1030 6 9.656064 0.001 0.001
1:53 pm 13:53 Windy with Snow Likely 6 -14.4 0 -17.8 76 76 NE 23 37 30.42 1030 8 12.874752 0.001 0.001
2:39 pm 14:39 Cloudy with Light Snow 6 -14.4 -1 -18.3 73 73 NE 16 26 30.62 1037 2.5 4.02336 0.001 0.001
2:53 pm 14:53 Cloudy with Light Snow 6 -14.4 -1 -18.3 73 73 NE 16 26 30.45 1031 3 4.828032 0.001 0.001
3:04 pm 15:04 Cloudy with Light Snow 5 -15 0 -18 78 78 ENE 17 28 30.65 1038 2.5 4.02336 0 0
3:15 pm 15:15 Cloudy with Light Snow 5 -15 0 -18 78 78 NE 15 24 30.65 1038 3 4.828032 0 0
3:27 pm 15:27 Cloudy with Light Snow 6 -14.4 0 -17.8 76 76 NE 12 19 30.62 1037 2.5 4.02336 0.001 0.001
3:50 pm 15:50 Cloudy with Light Snow 5 -15 0 -18 78 78 NE 16 26 30.65 1038 4 6.437376 0.001 0.001
3:53 pm 15:53 Cloudy with Light Snow 5 -15 -1 -18.3 76 76 NE 12 19 30.45 1031 4 6.437376 0.001 0.001
4:53 pm 16:53 Cloudy with Light Snow 4 -15.6 -2 -18.9 76 76 ENE 16 26 30.45 1031 2.5 4.02336 0.001 0.001
5:11 pm 17:11 Cloudy with Light Snow 3 -16.1 -2 -18.9 79 79 ENE 16 26 30.65 1038 4 6.437376 0.001 0.001
5:53 pm 17:53 Cloudy with Light Snow 3 -16.1 -3 -19.4 76 76 ENE 16 26 30.45 1031 5 8.04672 0.001 0.001
6:53 pm 18:53 Cloudy with Light Snow 2 -16.7 -3 -19.4 80 80 ENE 15 24 30.48 1032 5 8.04672 0.001 0.001
7:48 pm 19:48 Cloudy with Light Snow 1 -17 -4 -20 78 78 ENE 13 20 30.71 1040 2.5 4.02336 0 0
7:53 pm 19:53 Cloudy with Light Snow 1 -17.2 -4 -20 79 79 ENE 14 22 30.48 1032 3 4.828032 0.001 0.001
8:53 pm 20:53 Cloudy with Light Snow 1 -17.2 -4 -20 79 79 ENE 10 17 30.48 1032 2 3.218688 0.01 0.254
9:02 pm 21:02 Cloudy with Light Snow 1 -17 -4 -20 78 78 ENE 9 15 30.71 1040 1.75 2.816352 0 0
9:17 pm 21:17 Cloudy with Light Snow 1 -17.2 -4 -20 79 79 ENE 9 15 30.71 1040 2.5 4.02336 0.001 0.001
9:29 pm 21:29 Cloudy with Light Snow 1 -17.2 -4 -20 79 79 NE 12 19 30.71 1040 3 4.828032 0.001 0.001
9:39 pm 21:39 Cloudy with Light Snow 1 -17.2 -5 -20.6 75 75 ENE 10 17 30.71 1040 2.5 4.02336 0.01 0.254
9:46 pm 21:46 Cloudy with Light Snow 1 -17 -4 -20 78 78 ENE 8 13 30.71 1040 2.5 4.02336 0 0
9:53 pm 21:53 Cloudy with Light Snow 0 -17.8 -4 -20 83 83 ENE 9 15 30.5 1033 1.75 2.816352 0.01 0.254
10:08 pm 22:08 Cloudy with Light Snow 0 -18 -6 -21 78 78 ENE 10 17 30.74 1041 2.5 4.02336 0 0
10:17 pm 22:17 Cloudy with Light Snow 0 -17.8 -5 -20.6 79 79 ENE 10 17 30.74 1041 4 6.437376 0.001 0.001
10:35 pm 22:35 Cloudy with Light Snow 0 -17.8 -5 -20.6 79 79 ENE 9 15 30.74 1041 2 3.218688 0.001 0.001
10:45 pm 22:45 Cloudy with Light Snow 0 -17.8 -5 -20.6 79 79 ENE 9 15 30.74 1041 2 3.218688 0.01 0.254
10:53 pm 22:53 Cloudy with Light Snow 0 -17.8 -5 -20.6 79 79 ENE 8 13 30.53 1034 2 3.218688 0.01 0.254
11:15 pm 23:15 Cloudy with Light Snow 0 -17.8 -5 -20.6 79 79 ENE 7 11 30.74 1041 3 4.828032 0.001 0.001
11:53 pm 23:53 Cloudy with Light Snow -1 -18.3 -6 -21.1 79 79 ENE 7 11 30.53 1034 5 8.04672 0.001 0.001

Powered by AerisWeather